Location: Erba
(45.8000°N, 9.2500°E)
Time: 17:30:32
(UTC+02:00)

ISS - Pass Details

Date: 24 March 2023
Orbit: 413 x 421 km, 51.6° (Epoch: 29 March)

Event Time Altitude Azimuth Distance (km) Brightness Sun altitude
Rises 21:53:09 0° 298° (WNW) 2,356 1.1 -31.4°
Reaches altitude 10° 21:55:16 10° 302° (WNW) 1,490 -0.1 -31.7°
Enters shadow 21:55:22 11° 302° (WNW) 1,447 -0.2 -31.7°
